"Pseudo-MPEC" for P10LfMN

Created 2019 Jan 12 1:18:23 UT using Find_Orb

Click here for an explanation of pseudo-MPECs

 
 Astrometry: 
     P10LfMN  C2019 01 06'3(_/+DhwndmK*_EFr+I!Zr%Astrometryd\MJ?U7[q@tZ%?gAI8F51
     P10LfMN  C2019 01 06t\1Gau)5D78oW2*\+redacted;,^rM.eR=VXx-,Z-u:kd:m.Q+XcF51
     P10LfMN  C2019 01 06PPF;(=K:oY!Owb$kSi_!Qk`/TXKS\tk2J7',T,!IeVR=W.LnMQ_gF51
     P10LfMN  C2019 01 06:8H))Kclick85aU\nr%ZL%(SVAAKhA85W,'YKdbvQ`82287G?OLLF51
     P10LfMN  C2019 01 09(yvcXGNtwPLSnfkZy^qF#gO):Ql:?\B?X,wZZLWdR13Vmq:?=q,mF51
     P10LfMN  C2019 01 09KN^jajBhereA$nRBF=UdtI\4BS`NaOHmuc$G/ek+`Iy8lyVG=*JSF51
     P10LfMN  C2019 01 09?$c2yM+#N:B@E(ixu5wQ]n5aH-./f)p_-ZL`aWd5K`UJiyHd4yoKF51
     P10LfMN KC2019 01 11$W$Oqe/forCKJTi_%Po)sn+]\*,b+6u!'JY9N.0mq-uab[@lPIexH21
     P10LfMN KC2019 01 11Cxqx%AXrI@(li5gPwJiRs.PM0e?-cYausn$nP@:t/'J,*OO6H]gPH21
     P10LfMN KC2019 01 11'rNWM!%+o/K/)[kTexplanationAO)K?+.,[V8+A,qIXE+G_6pnZH21

Station data:
(F51) Pan-STARRS 1, Haleakala  (N20.707235 W156.255910)  US/Hawaii.
   Observers N. Primak, A. Schultz, S. Watters, J. Thiel, T. Goggia. Measurer
   PS1 Science Consortium. 1.8-m Ritchey-Chrétien + CCD.
(H21) Astronomical Research Observatory, Westfield  (N39.483057 W87.968270)
   US/Illinois. 0.76-m f/3.0 astrograph + CCD.

Orbital elements:  P10LfMN
   Perihelion 2018 Jun 18.043554 +/- 1.5 TT =  1:02:43 (JD 2458287.543554)
Epoch 2019 Jan 11.0 TT = JDT 2458494.5   Earth MOID: 0.5384   AutoNEOCP
M  50.00926257 +/- 0.9              (J2000 ecliptic)
n   0.24164148 +/- 0.00313          Peri.  291.02410 +/- 0.50
a   2.55282897 +/- 0.022            Node    87.84175 +/- 0.23
e   0.4760384 +/- 0.00486           Incl.   28.89568 +/- 0.19
P   4.08                   H 18.7   G  0.15   U  8.9  
q 1.33758434 +/- 0.000874    Q 3.76807360 +/- 0.0446
From 10 observations 2019 Jan. 6-11; mean residual 0".16
Residuals in arcseconds: 
190106 F51  .12+  .25-    190109 F51  .03+  .09-    190111 H21  .21-  .07-    
190106 F51  .07-  .11+    190109 F51  .03-  .18+    190111 H21  .07+  .26-    
190106 F51  .02-  .27+    190109 F51  .00   .10-    
190106 F51  .03-  .13-    190111 H21  .14+  .34+    

Ephemerides (geocentric):
Date (UTC) HH   RA              Dec         delta   r     elong  mag " sig PA
---- -- -- --  -------------   -----------  ------ ------ -----  --- ---- ---
2019 01 12 01  09 29 40.634   +45 03 28.70  1.3900 2.2756 146.5 22.0 .333  56
2019 01 12 02  09 29 37.580   +45 04 14.71  1.3901 2.2759 146.5 22.0 .348  56
2019 01 12 03  09 29 34.523   +45 05 00.68  1.3902 2.2761 146.5 22.0 .362  56
2019 01 12 04  09 29 31.461   +45 05 46.61  1.3903 2.2763 146.5 22.0 .377  56
2019 01 12 05  09 29 28.396   +45 06 32.51  1.3904 2.2766 146.6 22.0 .392  56
2019 01 12 06  09 29 25.327   +45 07 18.37  1.3905 2.2768 146.6 22.0 .407  56
2019 01 12 07  09 29 22.253   +45 08 04.20  1.3906 2.2770 146.6 22.0 .422  56
2019 01 12 08  09 29 19.176   +45 08 49.99  1.3908 2.2773 146.6 22.0 .438  56
2019 01 12 09  09 29 16.095   +45 09 35.75  1.3909 2.2775 146.7 22.0 .454  56
2019 01 12 10  09 29 13.010   +45 10 21.47  1.3910 2.2777 146.7 22.0 .470  56
2019 01 12 11  09 29 09.921   +45 11 07.16  1.3911 2.2780 146.7 22.0 .486  56
2019 01 12 12  09 29 06.828   +45 11 52.81  1.3912 2.2782 146.7 22.0 .502  56
2019 01 12 13  09 29 03.731   +45 12 38.42  1.3913 2.2784 146.7 22.0 .518  56
2019 01 12 14  09 29 00.630   +45 13 24.00  1.3914 2.2787 146.8 22.0 .535  56
2019 01 12 15  09 28 57.525   +45 14 09.54  1.3916 2.2789 146.8 22.0 .552  56
2019 01 12 16  09 28 54.417   +45 14 55.04  1.3917 2.2791 146.8 22.0 .568  56
2019 01 12 17  09 28 51.304   +45 15 40.51  1.3918 2.2794 146.8 22.0 .586  56
2019 01 12 18  09 28 48.188   +45 16 25.94  1.3919 2.2796 146.8 22.0 .603  56
2019 01 12 19  09 28 45.068   +45 17 11.34  1.3920 2.2798 146.9 22.0 .620  56
2019 01 12 20  09 28 41.944   +45 17 56.70  1.3922 2.2801 146.9 22.0 .638  56
2019 01 12 21  09 28 38.816   +45 18 42.02  1.3923 2.2803 146.9 22.0 .656  56
2019 01 12 22  09 28 35.684   +45 19 27.31  1.3924 2.2805 146.9 22.0 .674  55
2019 01 12 23  09 28 32.549   +45 20 12.56  1.3925 2.2808 146.9 22.0 .692  55
2019 01 13 00  09 28 29.409   +45 20 57.77  1.3926 2.2810 147.0 22.0 .710  55
2019 01 13 01  09 28 26.266   +45 21 42.95  1.3928 2.2812 147.0 22.0 .729  55
2019 01 13 02  09 28 23.119   +45 22 28.08  1.3929 2.2815 147.0 22.0 .748  55
2019 01 13 03  09 28 19.968   +45 23 13.19  1.3930 2.2817 147.0 22.0 .767  55
2019 01 13 04  09 28 16.813   +45 23 58.25  1.3931 2.2819 147.0 22.0 .786  55
2019 01 13 05  09 28 13.655   +45 24 43.28  1.3932 2.2822 147.1 22.0 .805  55
2019 01 13 06  09 28 10.492   +45 25 28.27  1.3934 2.2824 147.1 22.0 .824  55
2019 01 13 07  09 28 07.326   +45 26 13.22  1.3935 2.2826 147.1 22.0 .844  55
2019 01 13 08  09 28 04.157   +45 26 58.13  1.3936 2.2829 147.1 22.0 .864  55
2019 01 13 09  09 28 00.983   +45 27 43.01  1.3937 2.2831 147.1 22.0 .884  55
2019 01 13 10  09 27 57.806   +45 28 27.85  1.3939 2.2833 147.2 22.0 .904  55
2019 01 13 11  09 27 54.624   +45 29 12.65  1.3940 2.2836 147.2 22.0 .924  55
2019 01 13 12  09 27 51.440   +45 29 57.42  1.3941 2.2838 147.2 22.0 .945  55
2019 01 13 13  09 27 48.251   +45 30 42.14  1.3942 2.2840 147.2 22.0 .965  55
2019 01 13 14  09 27 45.059   +45 31 26.83  1.3944 2.2843 147.2 22.0 .986  55
2019 01 13 15  09 27 41.862   +45 32 11.48  1.3945 2.2845 147.2 22.0 1.01  55
2019 01 13 16  09 27 38.663   +45 32 56.10  1.3946 2.2847 147.3 22.0 1.03  55
2019 01 13 17  09 27 35.459   +45 33 40.67  1.3948 2.2850 147.3 22.0 1.05  55
2019 01 13 18  09 27 32.252   +45 34 25.21  1.3949 2.2852 147.3 22.0 1.07  55
2019 01 13 19  09 27 29.041   +45 35 09.70  1.3950 2.2854 147.3 22.0 1.09  55
2019 01 13 20  09 27 25.826   +45 35 54.16  1.3951 2.2857 147.3 22.0 1.11  54
2019 01 13 21  09 27 22.608   +45 36 38.58  1.3953 2.2859 147.4 22.0 1.14  54
2019 01 13 22  09 27 19.386   +45 37 22.97  1.3954 2.2861 147.4 22.0 1.16  54
2019 01 13 23  09 27 16.160   +45 38 07.31  1.3955 2.2864 147.4 22.0 1.18  54
2019 01 14 00  09 27 12.931   +45 38 51.62  1.3957 2.2866 147.4 22.0 1.20  54